Regional Weather Roundup
Issued by NWS State College, PA

Home | Current Version | Previous Version | Graphics & Text | Print | Product List | Glossary Off
Versions: 1 2 3 4 5 6 7 8 9 10 11 12 13 14 15 16 17 18 19 20 21 22 23 24 25 26 27 28 29 30 31 32 33 34 35 36 37 38 39 40 41 42 43 44 45 46 47 48 49 50

000
ASUS41 KCTP 220010
RWRCTP

REGIONAL WEATHER ROUNDUP
NATIONAL WEATHER SERVICE STATE COLLEGE PA
800 PM EDT THU AUG 21 2014

Note: "fair" indicates few or no clouds below 12,000 feet with no
significant weather and/or obstructions to visibility.

* = STATION THAT DOES NOT REPORT PRECIPITATION /E.G. RAIN...SNOW...ETC/
    THUNDER OR FOG.

PAZ002>004-007>009-013>016-020>023-029>032-220100-
WESTERN PENNSYLVANIA

CITY           SKY/WX    TMP DP  RH WIND       PRES   REMARKS
ERIE           MOCLDY    74  66  76 CALM      29.98S
MEADVILLE      CLOUDY    72  67  84 CALM      30.01F
FRANKLIN*      CLOUDY    70  64  83 SW5       30.03S
NEW CASTLE     NOT AVBL
BEAVER COUNTY  PTCLDY    73  66  78 SW10      30.03R
BUTLER*        PTCLDY    72  64  78 SW7       30.03F
PITTSBURGH INT CLOUDY    73  67  81 W7        30.03S
PITTSBURGH     MOCLDY    73  65  75 SW12      30.03S
INDIANA*       MOCLDY    73  68  83 W8        30.07S
LATROBE        MOCLDY    73  72  94 SW9       30.05R
WASHINGTON CO* MOCLDY    72  66  83 SW5       30.05F
$$

PAZ004>006-010>012-017>019-024>028-033>037-041-042-045-046-049>053-220100-
CENTRAL PENNSYLVANIA

CITY           SKY/WX    TMP DP  RH WIND       PRES   REMARKS
BRADFORD       MOCLDY    67  66  97 CALM      30.04S FOG
DUBOIS         CLOUDY    66  65  96 SW3       30.03S
CLEARFIELD     MOCLDY    67  66  97 CALM      30.02S FOG
JOHNSTOWN      CLOUDY    69  64  84 W9        30.07S
ALTOONA        CLOUDY    72  66  81 SW8       30.02F
STATE COLLEGE  MOCLDY    66  64  94 CALM      30.02R
WILLIAMSPORT   MOCLDY    74  69  85 N5        29.96F
SELINSGROVE    MOCLDY    72  68  87 CALM      29.99F FOG
FT INDIANTOWN  MOCLDY    74  70  87 VRB7      29.99F
CAPITAL CITY   CLOUDY    70  67  90 CALM      29.99S
HARRISBURG     CLOUDY    72  69  90 N6        29.98
YORK           CLOUDY    70  66  87 SW9       29.98F
$$

PAZ038>040-043-044-047-048-054-055-060>062-067>071-220100-
EASTERN PENNSYLVANIA

CITY           SKY/WX    TMP DP  RH WIND       PRES   REMARKS
SCRANTON       CLOUDY    77  67  71 VRB3      29.99F
MOUNT POCONO   CLOUDY    71  66  84 W5        30.05S HAZE
ALLENTOWN      CLOUDY    79  68  69 S3        29.99R
QUAKERTOWN*    CLOUDY    77  70  78 CALM      30.01S
READING        CLOUDY    78  69  73 S6        29.97S THUNDER
LANCASTER      CLOUDY    76  67  73 SW7       29.99R
COATESVILLE    CLOUDY    73  73 100 SE3       30.02R
POTTSTOWN      CLOUDY    77  69  76 CALM      30.00F
BLUE BELL      CLOUDY    79  70  73 CALM      29.99S
DOYLESTOWN     CLOUDY    74  66  76 SE7       29.99S
WILLOW GROVE   NOT AVBL
NORTH PHILA    CLOUDY    77  64  64 SE8       30.02R
PHILADELPHIA   CLOUDY    77  68  73 S9        30.00S
$$



USA.gov is the U.S. government's official web portal to all federal, state and local government web resources and services.